Houlton, ME

9:46 PM EST on November 21, 2017 (GMT -0500)
Houlton International

Weather History for KHUL - June, 2012

Change the Weather History Date:

Friday, June 29, 2012

  Actual Average Record
Temperature  
Mean Temperature 68 °F 64 °F  
Max Temperature 80 °F 76 °F 95 °F (1944)
Min Temperature 56 °F 52 °F 36 °F (1980)
Degree Days  
Heating Degree Days 0 3  
Month to date heating degree days 175 175  
Since 1 June heating degree days 175 175  
Since 1 July heating degree days 8063 9182  
Cooling Degree Days 3 2  
Month to date cooling degree days 30 33  
Year to date cooling degree days 34 37  
Since 1 June cooling degree days 30 33  
Growing Degree Days 18 (Base 50)    
Moisture  
Dew Point 59 °F    
Average Humidity 73    
Maximum Humidity 100    
Minimum Humidity 45    
Precipitation  
Precipitation 0.04 in 0.13 in 1.14 in (2000)
Month to date precipitation 11.47 3.51  
Year to date precipitation 23.42 18.14  
Sea Level Pressure  
Sea Level Pressure 29.53 in    
Wind  
Wind Speed 7 mph (SSW)    
Max Wind Speed 21 mph    
Max Gust Speed 29 mph    
Visibility 10 miles    
Events Rain , Thunderstorm    
T = Trace of Precipitation, MM = Missing Value Source: NWS Daily Summary

Daily Weather History Graph

Daily Weather History Graph

Search for Another Location

Airport or City:

Trip Planner

Search our weather history database for the weather conditions in past years. The results will help you decide how hot, cold, wet, or windy it might be!

Date:

Astronomy

Jun. 29, 2012 Rise Set
Actual Time 4:42 AM EDT 8:26 PM EDT
Civil Twilight 4:04 AM EDT 9:04 PM EDT
Nautical Twilight 3:12 AM EDT 9:56 PM EDT
Astronomical Twilight 2:00 AM EDT 11:08 PM EDT
Moon 4:01 PM EDT (6/29) 12:59 AM EDT (6/29)
Length of Visible Light 17h 00m
Length of Day
15h 43m
Waxing Gibbous, 77% of the Moon is Illuminated
Jun 29
Waxing Gibbous
Jul 3
Full
Jul 10
Last Quarter
Jul 19
New
Jul 26
First Quarter

Hourly Weather History & Observations

Time (EDT) Temp. Dew Point Humidity Pressure Visibility Wind Dir Wind Speed Gust Speed Precip Events Conditions
12:53 AM 57.9 °F 57.0 °F 97% 29.62 in 10.0 mi SSW 5.8 mph - N/A   Clear
1:53 AM 57.9 °F 55.9 °F 93% 29.62 in 10.0 mi SSW 5.8 mph - N/A   Clear
2:53 AM 57.0 °F 55.0 °F 93% 29.61 in 10.0 mi SSW 4.6 mph - N/A   Clear
3:53 AM 57.0 °F 55.0 °F 93% 29.60 in 10.0 mi South 3.5 mph - N/A   Clear
4:53 AM 57.0 °F 55.0 °F 93% 29.59 in 10.0 mi SSW 6.9 mph - N/A   Clear
5:53 AM 57.9 °F 55.9 °F 93% 29.59 in 10.0 mi SSW 4.6 mph - N/A   Clear
6:53 AM 61.0 °F 57.9 °F 90% 29.59 in 10.0 mi SSW 5.8 mph - N/A   Clear
7:53 AM 64.9 °F 59.0 °F 81% 29.58 in 10.0 mi SW 9.2 mph - N/A   Clear
8:53 AM 68.0 °F 60.1 °F 76% 29.57 in 10.0 mi SSW 6.9 mph - N/A   Clear
9:53 AM 72.0 °F 61.0 °F 68% 29.56 in 10.0 mi SW 11.5 mph - N/A   Clear
10:53 AM 75.0 °F 59.0 °F 57% 29.55 in 10.0 mi SW 11.5 mph 18.4 mph N/A   Clear
11:53 AM 78.1 °F 57.9 °F 50% 29.54 in 10.0 mi SW 13.8 mph 23.0 mph N/A   Clear
12:53 PM 79.0 °F 57.9 °F 48% 29.51 in 10.0 mi SSW 9.2 mph 23.0 mph N/A   Clear
1:53 PM 79.0 °F 55.9 °F 45% 29.49 in 10.0 mi SW 16.1 mph 28.8 mph N/A   Scattered Clouds
2:53 PM 78.1 °F 59.0 °F 52% 29.47 in 10.0 mi South 9.2 mph 24.2 mph N/A   Clear
3:53 PM 78.1 °F 62.1 °F 58% 29.47 in 10.0 mi SSW 12.7 mph 20.7 mph N/A   Scattered Clouds
4:53 PM 79.0 °F 61.0 °F 54% 29.43 in 10.0 mi South 12.7 mph 23.0 mph N/A   Clear
5:53 PM 77.0 °F 62.1 °F 60% 29.44 in 10.0 mi South 4.6 mph - N/A   Clear
6:53 PM 77.0 °F 63.0 °F 62% 29.44 in 10.0 mi Variable 4.6 mph - N/A   Clear
7:53 PM 75.0 °F 62.1 °F 64% 29.47 in 10.0 mi SW 3.5 mph - N/A Thunderstorm Scattered Clouds
8:31 PM 68.0 °F 64.4 °F 88% 29.48 in 10.0 mi SSW 5.8 mph - 0.02 in   Partly Cloudy
8:53 PM 68.0 °F 61.0 °F 78% 29.48 in 10.0 mi SSW 5.8 mph - 0.02 in   Clear
9:53 PM 64.9 °F 61.0 °F 87% 29.50 in 10.0 mi Calm Calm - N/A   Clear
10:53 PM 64.9 °F 61.0 °F 87% 29.52 in 10.0 mi SSW 4.6 mph - 0.00 in Rain Light Rain
11:53 PM 63.0 °F 61.0 °F 93% 29.52 in 9.0 mi South 3.5 mph - 0.02 in   Clear